STARLINK-3887, 52484

Orbit data source: Space-Track

STARLINK-3887, 52484 is a payload satellite owned by SpaceX/Seattle (US) in LEO that was launched on Fri, 06 May 2022 UTC via an FALCON 9 launch vehicle from the Air Force Eastern Test Range (AFETR). Payload-class satellites include a variety of spacecraft equipped with specific instruments for various scientific and technological missions. These include communications satellites like Starlink; space stations such as the ISS; scientific satellites like the Hubble; Earth observation satellites from companies like Planet Labs, Umbra, and HawkEye 360; GPS; miniature CubeSats for education and research; and military/defense satellites.

Loading next visibility...
Identifier
52484, 2022-049AK
Orbit
LEO
Country
Flag of USUS
Related business
Manufacturer
SpaceX/Seattle
Mission
Operational Commercial Communications
Bus & Motor
STARLINK, Unknown motor
Mass
297 kg wet, ~220 kg dry
Launch date (UTC)
2022-05-06 (4 years ago)
Launch vehicle
FALCON 9
Launch site
Air Force Eastern Test Range (AFETR)
Object type
Payload
Rocket body
Debris
Shape & HBR
Box + 1 Pan, 10.1 m
Radar Cross Section
13.562 m², Large (>1 m²)

Expand to show TLE details & history
Last TLE update: 16 hours ago

TLE from 16 hours ago
0 STARLINK-3887
1 52484U 22049AK  26235.78512547  .00000710  00000-0  31247-4 0  9996
2 52484  53.1619  23.2886 0001163  91.8689 268.2447 15.35403316237557
Epoch: 2026-08-23T18:50Z
TLE epoch observation values (Epoch: 2026-08-23T18:50:34.840Z)
Latitude
-0.00005°
Longitude
128.5672°
Altitude
460.649 km
Speed
7.638 km/s
True Right ascension
01h 33m 09s
True Declination
0° 00' 00"
Sunlit
Object was in full shadow at epoch
Visualization orbit readout
Latitude
Unknown
Longitude
Unknown
Altitude
Unknown
Speed
Unknown
Apparent Right ascension
Unknown
Apparent Declination
Unknown
Sunlit
N/A
Visualization observer readout
Local Sidereal Time
02:29:50
Azimuth
Unknown
Elevation
Unknown
Doppler factor
Unknown
Orbital elements
Apogee altitude
460.775 km
Perigee altitude
459.184 km
Semi-major axis
6,838.116 km
Eccentricity
0.00012
Inclination
53.1619°
RAAN
23.2886°
Arg. of periapsis
91.8689°
True anomaly
268.23138°
Mean anomaly
268.2447°
Eccentric anomaly
268.23804°
Mean motion
3.8383 °/min
Orbital period
93.79 mins
BSTAR
0.000031247
Loading maneuver chart data...
Computing Atmospheric mass density...
Loading historical data...
Loading historical data...
Loading historical data...
Loading historical data...
Loading historical data...
Loading historical data...
Loading historical data...

Documentation

Showing up to 5 results
|